{"data":{"norad_id":61687,"intl_designator":"2024-195A","name":"STARLINK-11335 [DTC]","alt_names":[],"object_type":"PAYLOAD","status":"ACTIVE","operator":null,"country":"US","launch_date":"2024-10-30","launch_site_code":"AFWTR","launch_vehicle":null,"mission":null,"orbit_class":"UNKNOWN","rcs_meters":null,"size_class":null,"mass_kg":null,"dimensions":null,"purposes":["comms"],"wikipedia_slug":null,"has_3d_model":false,"image_url":null,"decayed_at":null,"tle_current":{"epoch":"2026-09-21T21:15:06.704064Z","epoch_age_seconds":68574,"freshness":"FRESH","line1":"1 61687U 24195A   26264.88549426  .00001488  00000+0  17139-4 0  9990","line2":"2 61687  53.1599 139.4357 0001865  59.8407 300.2796 15.69720488109846","mean_motion":15.69720488,"eccentricity":0.0001865,"inclination_deg":53.1599,"raan_deg":139.4357,"arg_perigee_deg":59.8407,"mean_anomaly_deg":300.2796,"bstar":1.7139e-5,"rev_number":10984,"period_min":91.736077283079,"perigee_km":358.44013195335,"apogee_km":360.95334393761,"semimajor_km":6737.8337379455,"source":"CELESTRAK","updated_at":"2026-09-22T09:00:49.405863Z"}}}